SCP
0 0 0 0 0 0 0 0 0 0 0 0 0 0 0 0 0 0 0 0 0 0 0 0 0 0 0 0 0 0 0 0 0 0 0 0 0 0
0 0 0 0 0 0 0 0 0 0 0 0 0 0 0 0 0 0 0 0 0 0 0 0 0 0 0 0 0 0 0 0 0 0 0 0 0 0
0 0 0 0 0 0 0 0 0 0 0 0 0 0 0 0 0 0 0 0 0 0 0 0 0 0 0 0 0 0 0 0 0 0 0 0 0 0
0 0 0 0 0 0 0 0 0 0 0 0 0 0 0 0 0 0 0 0 0 0 0 0 0 0 0 0 0 0 0 0 0 0 0 0 0 0
0 0 0 0 0 0 0 0 0 0 0 0 0 0 0 0 0 0 0 0 0 0 0 0 0 0 0 0 0 0 0 0 0 0 0 0 0 0
0 0 0 0 0 0 0 0 0 0 0 0 0 0 0 0 0 0 0 0 0 0 0 0 0 0 0 0 0 0 0 0 0 0 0 0 0 0
0 0 0 0 0 0 0 0 0 0 0 0 0 0 0 0 0 0 0 0 0 0 0 0 0 0 0 0 0 0 0 0 0 0 0 0 0 0
0 0 0 0 0 0 0 0 0 0 0 0 0 0 0 0 0 0 0 0 0 0 0 0 0 0 0 0 0 0 0 0 0 0 0 0 0 0
0 0 0 0 0 0 0 0 0 0 0 0 0 0 0 0 0 0 0 0 0 0 0 0 0 0 0 0 0 0 0 0 0 0 0 0 0 0
0 0 0 0 0 0 0 0 0 0 0 0 0 0 0 0 0 0 0 0 0 0 0 0 0 0 0 0 0 0 0 0 0 0 0 0 0 0
0 0 0 0 0 0 0 0 0 0 0 0 0 0 0 0 0 0 0 0 0 0 0 0 0 0 0 0 0 0 0 0 0 0 0 0 0 0
0 0 0 0 0 0 0 0 0 0 0 0 0 0 0 0 0 0 0 0 0 0 0 0 0 0 0 0 0 0 0 0 0 0 0 0 0 0
0 0 0 0 0 0 0 0 0 0 0 0 0 0 0 0 0 0 0 0 0 0 0 0 0 0 0 0 0 0 0 0 0 0 0 0 0 0
0 0 0 0 0 0 0 0 0 0 0 0 0 0 0 0 0 0 0 0 0 0 0 0 0 0 0 0 0 0 0 0 0 0 0 0 0 0
0 0 0 0 0 0 0 0 0 0 0 0 0 0 0 0 0 0 0 0 0 0 0 0 0 0 0 0 0 0 0 0 0 0 0 0 0 0
0 0 0 0 0 0 0 0 0 0 0 0 0 0 0 0 0 0 0 0 0 0 0 0 0 0 0 0 0 0 0 0 0 0 0 0 0 0
0 0 0 0 0 0 0 0 0 0 0 0 0 0 0 0 0 0 0 0 0 0 0 0 0 0 0 0 0 0 0 0 0 0 0 0 0 0
0 0 0 0 0 0 0 0 0 0 0 0 0 0 0 0 0 0 0 0 0 0 0 0 0 0 0 0 0 0 0 0 0 0 0 0 0 0
0 0 0 0 0 0 0 0 0 0 0 0 0 0 0 0 0 0 0 0 0 0 0 -0 -0 0 0 0 0 0 0 0 0 0 0 0 0 0
0 0 0 0 0 0 0 0 0 0 0 0 0 0 0 0 0 0 0 0 0 0 0 0 -0 0 0 0 0 0 0 0 0 0 0 0 0 0
0 0 0 0 0 0 0 0 0 0 0 0 0 0 0 0 0 0 0 0 0 0 0 0 0 0 0 0 0 0 0 0 0 0 0 0 0 0
0 0 0 0 0 0 0 0 0 0 0 0 0 0 0 0 0 0 0 0 0 0 0 0 0 0 0 0 0 0 0 0 0 0 0 0 0 0
0 0 0 0 0 0 0 0 0 0 0 0 0 0 0 0 0 0 0 0 0 0 0 0 0 0 0 0 0 0 0 0 0 0 0 0 0 0
Wind_Speed
5 6 5 5 6 7 7 8 10 13 13 10 6 7 9 11 14 15 16 22 26 28 30 30 31 31 32 32 32 32 32 33 34 34 35 35 35 35
4 6 7 6 7 7 8 8 9 12 14 9 11 12 13 12 17 17 17 24 26 27 28 29 30 31 32 33 34 34 34 34 34 34 35 35 36 36
5 6 8 9 8 7 8 8 9 10 15 14 12 13 17 17 15 15 15 16 16 25 28 29 31 32 32 32 33 33 33 33 33 33 34 34 34 34
6 7 8 7 9 8 8 9 9 11 13 18 14 14 17 17 17 17 15 15 16 22 27 29 30 31 31 32 32 33 33 33 34 34 34 34 34 33
7 8 9 9 10 8 10 10 10 10 12 15 16 14 13 13 17 17 17 14 15 17 23 25 27 30 31 32 33 33 33 32 32 32 32 32 32 33
8 9 9 9 10 11 10 12 12 13 14 14 14 14 13 16 16 14 14 13 13 14 18 20 24 28 29 30 31 31 32 32 32 31 31 32 32 32
9 9 10 11 14 13 12 13 14 13 13 13 14 14 15 14 14 13 14 15 15 14 15 14 15 15 17 22 26 28 29 30 31 31 31 32 32 32
10 10 10 11 13 17 19 20 20 17 16 14 14 16 18 17 14 14 15 16 16 12 14 16 15 16 15 14 22 29 31 32 32 32 32 33 33 33
10 10 9 9 14 13 16 20 19 21 20 18 18 18 18 17 17 18 17 17 17 15 16 18 15 16 15 16 27 30 31 32 31 31 31 32 33 33
10 11 12 12 12 15 16 16 15 15 17 14 15 17 17 17 17 17 18 17 17 14 14 17 16 16 16 15 25 29 30 29 29 29 30 31 31 32
10 11 12 13 17 21 18 16 16 15 15 19 22 23 26 26 21 13 13 13 15 14 12 13 14 15 16 16 16 22 23 26 28 29 30 30 30 31
10 11 14 15 19 22 17 16 16 15 15 16 17 17 17 17 19 13 11 12 14 12 9 9 12 12 12 10 11 13 16 22 25 26 27 28 29 20
10 9 9 17 21 23 20 15 16 18 16 14 13 12 12 11 11 11 10 10 13 13 12 11 11 12 12 14 15 14 14 12 13 16 21 25 27 23
11 10 11 20 22 22 16 16 20 19 10 10 11 11 11 10 11 12 14 14 14 17 17 16 13 13 14 16 16 14 13 13 13 13 12 19 23 27
10 16 20 20 19 14 14 18 16 10 9 10 11 11 11 12 12 12 13 13 15 15 15 16 15 14 14 15 16 17 16 15 11 11 13 14 14 14
11 14 18 16 13 14 13 11 8 9 10 10 11 11 12 11 11 11 11 11 11 12 11 12 14 15 14 16 15 16 14 12 13 14 15 15 14 13
13 10 8 8 8 8 9 9 9 9 9 10 10 11 11 11 12 11 10 11 12 13 14 11 11 11 14 15 15 14 13 13 13 14 15 16 14 12
13 8 8 8 9 9 10 11 10 10 10 10 11 11 11 11 12 11 11 11 12 12 13 13 13 13 11 9 11 12 12 13 14 14 14 15 16 14
8 7 8 8 9 9 10 11 11 11 10 10 11 11 11 11 11 12 11 11 11 12 12 12 12 11 13 14 10 8 12 14 15 14 13 13 15 15
6 7 8 9 9 10 10 11 11 11 10 10 11 11 11 11 11 11 11 12 12 13 12 11 11 11 11 12 12 15 17 14 13 14 14 14 13 15
7 8 8 9 9 10 10 11 11 11 12 11 11 12 11 11 11 11 12 16 14 12 12 12 12 17 12 10 11 12 11 12 14 13 13 13 13 12
8 9 9 10 10 10 11 11 11 11 12 11 11 11 11 11 12 14 12 12 11 11 13 12 12 11 10 11 13 14 14 14 13 14 13 13 10 10
9 9 10 10 10 10 10 11 13 12 11 11 11 11 11 12 11 11 12 11 11 11 12 11 11 10 10 10 11 12 15 15 12 12 11 18 22 20
Wind_Direction
289 290 288 288 286 285 284 282 288 296 299 302 295 299 301 298 296 293 292 293 295 293 292 292 293 293 292 290 289 288 287 285 284 282 280 278 275 273
302 300 301 293 291 285 280 280 278 284 288 294 300 301 304 295 291 291 291 293 291 290 291 291 291 290 290 290 288 287 285 283 281 278 276 273 270 268
301 302 300 300 294 291 289 285 283 285 287 294 298 302 299 296 297 297 296 294 291 291 292 292 291 290 289 288 287 286 284 282 280 278 276 274 271 269
300 299 297 298 296 294 292 291 289 288 290 296 300 299 298 300 300 299 297 292 291 293 293 293 292 290 289 288 286 285 283 281 279 277 276 274 272 271
293 297 301 301 299 299 297 294 292 291 290 291 294 296 298 300 302 298 296 295 295 295 294 292 289 288 287 287 286 286 285 283 281 279 277 275 273 271
286 288 294 295 299 301 298 296 296 296 293 291 292 296 300 302 299 301 303 301 298 298 292 289 287 288 287 286 285 284 283 282 280 278 275 273 270 268
286 287 289 294 296 296 297 299 300 296 293 292 295 300 300 301 303 306 303 302 298 297 293 292 293 289 288 285 282 280 279 279 278 276 274 271 268 264
295 296 297 293 293 297 298 298 295 292 293 295 297 297 299 302 306 304 302 301 300 302 299 296 294 289 287 284 284 284 283 282 279 277 274 271 268 265
297 297 297 297 303 300 298 296 294 291 289 292 293 293 298 302 302 299 298 297 295 299 299 293 294 291 290 288 289 288 287 285 282 279 275 271 268 265
294 296 299 303 304 304 302 300 297 294 290 291 289 290 291 292 293 296 297 293 288 287 288 291 296 295 296 293 291 288 286 285 284 281 277 273 268 265
301 300 302 301 304 307 307 303 300 299 300 296 290 287 289 293 294 292 290 290 293 296 295 288 294 301 296 289 287 288 289 288 286 283 279 276 272 268
305 303 302 304 308 311 311 308 306 307 306 301 296 295 294 292 290 283 285 288 292 296 293 296 299 307 302 289 293 297 295 291 289 287 285 280 275 269
307 307 306 310 311 313 313 306 304 306 302 301 301 299 296 295 296 294 289 283 284 281 288 297 293 293 284 291 298 295 290 289 292 290 287 283 278 272
307 307 309 312 314 314 310 305 306 307 301 302 299 298 300 301 298 296 291 283 273 275 281 284 281 283 286 287 292 295 295 293 290 286 282 282 281 276
304 306 308 311 314 310 304 307 309 304 303 301 298 299 299 296 295 293 291 288 284 278 275 274 274 277 277 281 285 291 296 297 289 288 291 289 284 278
311 308 308 307 305 301 304 307 307 304 305 300 299 298 298 297 296 298 299 303 299 295 286 276 275 277 280 282 283 285 287 287 295 300 299 295 289 281
315 305 304 310 313 313 313 313 314 313 310 304 300 300 300 300 301 302 300 299 294 298 305 304 293 283 276 277 281 281 287 295 298 303 305 303 300 295
315 305 310 314 314 316 316 315 314 312 308 304 300 298 299 300 301 301 299 297 296 298 301 305 307 307 303 284 252 274 292 301 304 305 305 306 308 309
309 310 312 313 313 311 309 308 307 307 306 300 297 297 297 297 297 298 299 298 298 300 301 303 306 308 312 314 302 286 302 306 307 309 312 311 308 308
315 311 312 311 309 307 305 305 305 305 304 301 299 296 295 295 295 296 297 297 299 301 303 305 306 309 309 302 298 299 297 299 311 314 317 315 307 306
315 312 309 307 305 303 301 300 300 300 300 300 296 295 295 294 293 293 293 296 299 300 305 307 303 305 300 292 291 301 305 306 304 310 318 320 324 323
311 309 306 304 302 299 298 299 300 299 300 297 296 296 294 292 292 293 293 296 298 300 304 304 305 308 309 305 306 307 311 316 315 312 311 321 324 319
307 305 303 301 298 296 296 298 299 297 296 295 294 295 295 295 292 290 290 293 299 307 312 312 313 317 317 312 312 313 318 326 331 333 332 336 337 336